Location: Raddle
(37.7789°N, 89.5868°W)
Time: 05:24:35
(UTC+00:00)

Daily predictions for brighter satellites

Satellite Brightness Start Highest point End
(mag) Time Altitude Azimuth Time Altitude Azimuth Time Altitude Azimuth
ISS -1.9 00:00:07 10° NNW 00:02:03 18° NNE 00:02:03 18° NNE
Cosmos 2082 Rocket 2.5 00:00:22 10° SSW 00:06:02 70° WNW 00:11:43 10° NNE
SL-16 R/B 3.9 00:03:14 10° NNE 00:05:04 15° NNE 00:05:04 15° NNE
ATLAS 5 CENTAUR R/B 4.0 00:05:45 10° NNW 00:08:16 13° NNE 00:08:16 13° NNE
CZ-2D R/B 3.9 00:06:03 10° S 00:09:49 57° W 00:13:37 10° NNW
Cosmos 372 Rocket 3.9 00:07:29 10° NNW 00:12:44 76° ENE 00:17:58 10° SSE
Cosmos 1666 Rocket 3.4 00:10:29 10° N 00:14:55 78° E 00:19:19 10° S
Cosmos 1328 Rocket 3.4 00:11:29 10° S 00:15:54 75° E 00:19:19 17° NNE
CZ-4 R/B 4.3 00:13:26 10° SSE 00:17:30 66° ENE 00:21:36 10° N
CZ-2C R/B 2.6 00:15:24 10° SW 00:18:56 26° SSE 00:19:38 25° SE
Meteor 1-27 Rocket 4.5 00:15:12 10° SSE 00:19:10 30° ESE 00:19:10 30° ESE
Lacrosse 5 rocket 3.7 00:18:47 10° N 00:18:55 10° N 00:18:55 10° N
TRACE 4.5 00:19:47 37° NNE 00:21:11 82° ESE 00:24:53 10° S
Cosmos 2278 3.7 00:15:40 10° NNW 00:21:17 56° ENE 00:26:51 10° SE
ARGOS 3.1 00:21:15 10° SSE 00:26:40 86° ENE 00:32:06 10° NNW
SKYMED 2 4.2 00:23:10 10° N 00:27:25 54° WNW 00:31:38 10° SSW
IRAS Rocket 4.5 00:28:34 42° E 00:29:07 43° E 00:34:22 10° S
Landsat 5 3.5 00:26:39 23° N 00:29:07 74° WNW 00:33:03 10° SSW
COSMOS 2455 4.1 00:25:43 10° WSW 00:31:17 38° NW 00:36:35 11° NNE
SL-08 RB Rocket 3.6 00:28:30 10° SSE 00:33:07 71° ENE 00:37:44 10° N
Meteor 2-15 4.3 00:29:17 10° S 00:35:25 83° E 00:41:32 10° N
Meteor 2-6 Rocket 4.4 00:30:36 10° SSW 00:36:24 76° W 00:42:05 10° N
Cosmos 1655 Rocket 3.9 00:33:25 10° N 00:39:46 65° E 00:46:03 10° SSE
NOAA 15 4.5 00:36:16 10° SSE 00:41:29 62° ENE 00:46:42 10° N
DMSP B5D2-2 3.9 00:40:33 53° NE 00:41:39 68° ESE 00:46:51 10° S
USA 234 3.7 00:37:31 10° SSE 00:43:57 59° SW 00:50:25 10° NW
CZ-4B R/B 4.0 00:39:54 10° S 00:45:11 51° W 00:50:25 10° NNW
GEOS 3 Rocket 4.3 00:46:40 37° NNE 00:46:40 37° NNE 00:50:20 10° NNW
H-2A R/B 4.3 00:49:34 15° SSE 00:49:34 15° SSE 00:50:24 10° S
GPS 2-04 Rocket1 3.4 00:43:15 10° W 00:47:01 50° SSW 00:47:01 50° SSW
CZ-4C R/B 4.5 00:51:56 34° WSW 00:51:56 34° WSW 00:54:17 10° SW
CZ-2C R/B 4.0 00:47:37 10° N 00:52:19 36° WNW 00:56:59 10° SW
Meteor 1-10 Rocket 4.4 00:49:45 10° SSW 00:55:33 72° W 00:59:17 23° N
Cosmos 1666 4.4 00:52:25 10° NNW 00:55:44 31° W 00:59:01 10° SSW
Cosmos 1515 Rocket 3.8 00:52:48 10° SSW 00:56:50 66° WSW 00:56:50 66° WSW
CZ-4C R/B 3.1 01:09:26 10° NW 01:17:05 80° WSW 01:21:47 31° SSE
Okean O Rocket 4.4 01:30:46 10° SW 01:33:33 16° W 01:36:22 10° NW
SL-16 R/B 4.4 01:45:54 10° NNW 01:46:59 16° NNW 01:46:59 16° NNW
ATLAS 3B CENTAUR R/B 4.4 01:42:08 10° WSW 02:00:35 58° S 02:02:42 54° SSE
Cosmos 2369 Rocket 3.1 10:05:54 38° SE 10:07:10 44° ESE 10:12:28 10° NE
Cosmos 1943 Rocket 3.9 10:35:16 20° N 10:35:16 20° N 10:37:02 10° N
CZ-2C R/B 4.1 10:28:49 10° SE 10:33:43 34° ENE 10:38:33 10° N
CENTAUR R/B 3.5 10:38:46 31° N 10:38:46 31° N 10:43:12 10° NNE
Envisat 3.7 10:36:53 10° NNE 10:41:51 52° E 10:46:47 10° S
Cosmos 2098 Rocket 3.8 10:40:42 10° SSE 10:44:15 48° E 10:48:42 10° NNE
Cosmos 2082 Rocket 4.4 10:50:12 10° SSW 10:50:12 10° SSW 10:50:15 10° SSW
DELTA 2 R/B (1) 3.5 10:47:14 63° SW 10:48:04 78° SSE 10:53:37 10° ENE
Cosmos 2034 Rocket 4.3 10:51:34 45° WSW 10:51:34 45° WSW 10:56:37 10° SSW
Genesis I 3.4 10:52:06 71° E 10:52:06 71° E 10:55:58 10° SE
NOSS 3-2 (C) 4.1 11:00:56 32° NNW 11:00:56 32° NNW 11:05:45 10° NNE
Cosmos 1812 2.9 11:03:50 35° N 11:05:19 70° E 11:09:07 10° SSE
ATLAS 3B R/B 4.5 11:00:06 10° S 11:05:35 30° ESE 11:11:15 10° NE
MOS 1-B Rocket 3.9 10:59:57 10° SSE 11:06:28 84° WSW 11:12:17 10° NNW
SJ 16-02 3.9 11:05:11 10° SSE 11:08:36 23° E 11:12:00 10° NE
Cosmos 1634 Rocket 3.9 11:05:32 10° N 11:11:47 74° W 11:17:57 10° S
ADEOS 4.3 11:10:57 10° NNE 11:16:05 55° E 11:21:11 10° S
CZ-4B R/B 4.0 11:12:31 10° N 11:17:00 85° WNW 11:21:27 10° SSW
Landsat 5 4.1 11:12:46 10° SSE 11:17:12 63° ENE 11:21:39 10° N
Tsikada Rocket 4.4 11:11:39 10° SW 11:17:16 36° WNW 11:22:59 10° N
Meteor 2-6 Rocket 4.3 11:13:12 10° N 11:18:37 71° E 11:23:59 10° SSE
CZ-4C R/B 4.2 11:16:30 10° SE 11:19:26 36° ENE 11:22:17 10° N
ATLAS 5 CENTAUR R/B 3.0 11:16:21 10° S 11:19:42 32° ESE 11:23:17 10° NE
SKYMED 2 3.5 11:15:49 10° SSE 11:20:09 89° WSW 11:24:07 12° NNW
Meteor 1-31 Rocket 2.7 11:24:13 10° N 11:28:05 62° WNW 11:31:56 10° SSW
CZ-2C R/B 4.1 11:23:57 10° NNE 11:28:42 47° E 11:33:40 10° S
USA 215 3.8 11:25:54 10° ESE 11:32:12 54° NE 11:37:55 13° NW
Cosmos 1782 4.0 11:33:14 24° WSW 11:33:14 24° WSW 11:35:37 10° SSW
Cosmos 921 Rocket 3.4 11:30:39 29° NW 11:32:27 44° W 11:36:42 10° S
H-2A R/B 3.3 11:32:09 10° N 11:35:30 33° WNW 11:38:54 10° SW
Cosmos 1862 3.5 11:33:29 10° SSW 11:37:14 43° W 11:41:01 10° N
H-2A R/B 4.0 11:34:13 10° SE 11:37:52 29° ENE 11:41:37 10° N
Cosmos 836 Rocket 4.4 11:33:20 13° NNW 11:38:02 67° WSW 11:43:10 10° S
Meteor 1-10 Rocket 4.3 11:33:58 10° N 11:39:32 79° E 11:45:05 10° SSE
Okean 3 Rocket 3.8 11:36:45 10° SSW 11:41:07 48° W 11:45:32 10° N
Cosmos 2180 Rocket 4.4 11:37:00 10° N 11:43:11 87° W 11:49:18 10° S
Cosmos 1151 Rocket 3.4 11:42:46 11° NNW 11:46:40 41° W 11:50:46 10° SSW
Cosmos 1503 Rocket 4.2 11:43:28 10° SW 11:48:30 47° WNW 11:53:39 10° N
Meteor 2-8 Rocket 4.4 11:43:18 10° N 11:49:26 76° W 11:55:31 10° S
Cosmos 1766 Rocket 4.2 11:46:07 10° SW 11:50:01 32° WNW 11:53:56 10° NNW
Cosmos 2369 Rocket 3.1 11:47:55 14° WSW 11:51:22 24° WNW 11:55:54 10° N
BREEZE-M DEB (TANK) 4.1 11:37:03 14° NW 11:51:34 62° SW 11:56:23 10° SSE
SL-27 R/B 3.6 11:51:53 10° N 11:55:20 45° ENE 11:58:43 10° SE
